ONEWEB-0294, 49083

Orbit data source: Space-Track

ONEWEB-0294, 49083 is a payload satellite owned by One Web (NAA) (UK) in LEO that was launched on Sat, 21 Aug 2021 UTC via a SOYUZ-2-1B launch vehicle from the Tyuratam Missile And Space Complex (TTMTR). Payload-class satellites include a variety of spacecraft equipped with specific instruments for various scientific and technological missions. These include communications satellites like Starlink; space stations such as the ISS; scientific satellites like the Hubble; Earth observation satellites from companies like Planet Labs, Umbra, and HawkEye 360; GPS; miniature CubeSats for education and research; and military/defense satellites.

Loading next visibility...
Identifier
49083, 2021-075J
Orbit
LEO
Country
Flag of UKUK
Related business
Manufacturer
One Web
Mission
Operational Commercial Communications
Bus & Motor
ARROW, Unknown motor
Mass
148 kg wet, ~140 kg dry
Launch date (UTC)
2021-08-21 (5 years ago)
Launch vehicle
SOYUZ-2-1B
Launch site
Tyuratam Missile And Space Complex (TTMTR)
Object type
Payload
Rocket body
Debris
Shape & HBR
Trap Box + 2 Pan, 6.7 m
Radar Cross Section
3.464 m², Medium (>0.1 m² and < 1m²)

Expand to show TLE details & history
Last TLE update: 9 hours ago

TLE from 9 hours ago
0 ONEWEB-0294
1 49083U 21075J   26130.13565547 -.00000090  00000-0 -28447-3 0  9996
2 49083  87.8979 358.2233 0001448  78.1724 281.9567 13.12445818229587
Epoch: 2026-05-10T03:15Z
TLE epoch observation values (Epoch: 2026-05-10T03:15:20.632Z)
Latitude
-0.00002°
Longitude
81.44425°
Altitude
1,216.376 km
Speed
7.246 km/s
True Right ascension
23h 52m 53s
True Declination
0° 00' 00"
Sunlit
Object was in daylight at epoch
Visualization orbit readout
Latitude
Unknown
Longitude
Unknown
Altitude
Unknown
Speed
Unknown
Apparent Right ascension
Unknown
Apparent Declination
Unknown
Sunlit
N/A
Visualization observer readout
Local Sidereal Time
20:35:59
Azimuth
Unknown
Elevation
Unknown
Doppler factor
Unknown
Orbital elements
Apogee altitude
1,211.928 km
Perigee altitude
1,209.73 km
Semi-major axis
7,588.966 km
Eccentricity
0.00014
Inclination
87.8979°
RAAN
358.2233°
Arg. of periapsis
78.1724°
True anomaly
281.94047°
Mean anomaly
281.9567°
Eccentric anomaly
281.94858°
Mean motion
3.28299 °/min
Orbital period
109.66 mins
BSTAR
-0.00028447
Loading maneuver chart data...
Computing Atmospheric mass density...
Loading historical data...
Loading historical data...
Loading historical data...
Loading historical data...
Loading historical data...
Loading historical data...
Loading historical data...

Documentation

Showing up to 5 results
|